DELTA 1 DEB, 7046

Orbit data source: Space-Track

DELTA 1 DEB, 7046 is space debris in SSO originally from a launch on Tue, 06 Nov 1973 UTC launched from the Air Force Western Test Range (AFWTR). Debris objects in space refer to the collection of defunct objects orbiting the Earth. Examples of debris include non-operational satellites, rocket bodies, and fragments generated from explosions, collisions, or faulty payload assembly.

Loading next visibility...
Identifier
7046, 1973-086AN
Orbit
SSO
Last TLE update
2 days ago
Origin
Manufacturer
Unknown
Mission
Spacecraft
Bus & Motor
Unknown
Mass
Unknown
Launch date (UTC)
1973-11-06 (52 years ago)
Launch vehicle
Unknown
Launch site
Air Force Western Test Range (AFWTR)
Object type
Payload
Rocket body
Debris
Shape & HBR
Unknown
Radar Cross Section
Small (<0.1 m²)

Expand to show TLE details & history

TLE from 2 days ago
0 DELTA 1 DEB
1 07046U 73086AN  25125.52436531 -.00000007  00000-0  33453-3 0  9994
2 07046 102.5361 138.4868 0057627  19.2149 139.4233 12.29380949303916
Epoch: 2025-05-05T12:35Z
Definitive object data (Epoch: 2025-05-05T12:35:05.162Z)
Latitude
20.4204°
Longitude
-89.19583°
Altitude
1,588.936 km
Speed
7.061 km/s
True Right ascension
21h 32m 50s
True Declination
20° 19' 12"
Sunlit
Object was in daylight at TLE epoch
Visualization TLE readout
Latitude
-61.98288°
Longitude
112.32409°
Altitude
1,567.986 km
Speed
7.087 km/s
Apparent Right ascension
03h 19m 23s
Apparent Declination
-79° 57' 23"
Sunlit
Object is in daylight
Visualization observer readout
Local Sidereal Time
12:24:01
Azimuth
190.153° SSW
Elevation
-46.745°
Doppler factor
1
Orbital elements
Apogee altitude
1,595.248 km
Perigee altitude
1,503.878 km
Semi-major axis
7,927.7 km
Eccentricity
0.0057627
Inclination
102.5361°
RAAN
138.4868°
Arg. of periapsis
19.2149°
True anomaly
139.8505°
Mean anomaly
139.4233°
Eccentric anomaly
139.63713°
Mean motion
3.07484 °/min
BSTAR
0.00033453
Orbital period
117.08 mins
Loading maneuver chart data...
Loading SW <> Apogee altitude chart data...
Loading historical data...
Loading historical data...
Loading historical data...
Loading historical data...
Loading historical data...
Loading historical data...
Loading historical data...

DELTA 1 DEB Visibility forecast

Observer location: undefined°, undefined°

Span
Click to sort rows by Start time (UTC) header in descending order
Start Az.
Max El. time (UTC)
Max El. Az.
Max El.
End time (UTC)
End Az.
16 mins2025-05-07 13:10:24.864Z28.056° NE2025-05-07 13:18:24.864Z95.766° ESE38.389°2025-05-07 13:26:24.864Z175.89° S
13 mins2025-05-07 15:07:24.864Z357.294° N2025-05-07 15:13:24.864Z298.876° NW32.087°2025-05-07 15:20:24.864Z240.079° WSW
10 mins2025-05-07 22:31:24.864Z84.291° E2025-05-07 22:36:24.864Z44.34° NE18.692°2025-05-07 22:41:24.864Z7.864° NNE
15 mins2025-05-08 00:22:24.864Z154.525° SSE2025-05-08 00:29:24.864Z73.997° E44.752°2025-05-08 00:37:24.864Z343.552° N
10 mins2025-05-08 02:20:24.864Z229.272° WSW2025-05-08 02:25:24.864Z269.491° W19.016°2025-05-08 02:30:24.864Z307.888° NW
|